TimeCDT,TemperatureF,Dew PointF,Humidity,Sea Level PressureIn,VisibilityMPH,Wind Direction,Wind SpeedMPH,Gust SpeedMPH,PrecipitationIn,Events,Conditions,WindDirDegrees,DateUTC
12:24 AM,57.2,48.2,72,30.02,9.0,SE,10.4,-,N/A,,Mostly Cloudy,130,2013-03-10 06:24:00
12:56 AM,57.9,48.0,70,30.07,9.0,SSE,5.8,-,N/A,,Mostly Cloudy,160,2013-03-10 06:56:00
1:09 AM,57.2,48.2,72,30.04,9.0,SSE,6.9,-,N/A,,Scattered Clouds,150,2013-03-10 07:09:00
1:56 AM,57.0,48.0,72,30.07,9.0,SSE,3.5,-,N/A,,Mostly Cloudy,160,2013-03-10 07:56:00
3:43 AM,57.2,48.2,72,30.03,9.0,SSE,4.6,-,N/A,,Scattered Clouds,150,2013-03-10 08:43:00
3:56 AM,55.9,46.9,72,30.04,9.0,SE,8.1,-,N/A,,Clear,130,2013-03-10 08:56:00
4:56 AM,55.0,46.0,72,30.05,9.0,ESE,3.5,-,N/A,,Scattered Clouds,110,2013-03-10 09:56:00
5:09 AM,53.6,46.4,77,30.01,9.0,East,6.9,-,N/A,,Mostly Cloudy,90,2013-03-10 10:09:00
5:40 AM,53.6,46.4,77,30.01,9.0,ESE,5.8,-,N/A,,Scattered Clouds,110,2013-03-10 10:40:00
5:56 AM,52.0,45.0,77,30.04,9.0,ESE,4.6,-,N/A,,Clear,110,2013-03-10 10:56:00
6:56 AM,53.1,45.0,74,30.05,9.0,SE,4.6,-,N/A,,Mostly Cloudy,140,2013-03-10 11:56:00
7:12 AM,53.6,44.6,72,30.02,9.0,ESE,5.8,-,N/A,,Scattered Clouds,120,2013-03-10 12:12:00
7:56 AM,55.0,44.1,67,30.04,9.0,SE,9.2,-,N/A,,Mostly Cloudy,130,2013-03-10 12:56:00
8:05 AM,55.4,44.6,67,30.01,9.0,SE,10.4,-,N/A,,Scattered Clouds,130,2013-03-10 13:05:00
8:56 AM,57.0,43.0,59,30.04,10.0,SE,9.2,-,N/A,,Clear,140,2013-03-10 13:56:00
9:56 AM,60.1,43.0,53,30.04,10.0,SSE,10.4,23.0,N/A,,Clear,150,2013-03-10 14:56:00
10:56 AM,64.0,46.0,52,30.04,10.0,SSE,12.7,19.6,N/A,,Clear,150,2013-03-10 15:56:00
11:56 AM,68.0,50.0,52,30.04,10.0,SSE,8.1,18.4,N/A,,Partly Cloudy,150,2013-03-10 16:56:00
12:56 PM,68.0,53.1,59,30.04,10.0,South,11.5,25.3,N/A,,Overcast,180,2013-03-10 17:56:00
1:56 PM,73.0,55.0,53,30.00,10.0,SSE,13.8,23.0,N/A,,Mostly Cloudy,160,2013-03-10 18:56:00
2:56 PM,75.9,53.1,45,29.95,10.0,SSE,13.8,29.9,N/A,,Scattered Clouds,160,2013-03-10 19:56:00
3:56 PM,73.9,54.0,50,29.94,10.0,South,13.8,25.3,N/A,,Mostly Cloudy,180,2013-03-10 20:56:00
3:58 PM,73.4,53.6,50,29.92,10.0,SSE,15.0,24.2,N/A,,Overcast,160,2013-03-10 20:58:00
4:56 PM,75.0,54.0,48,29.91,10.0,SSE,13.8,21.9,N/A,,Mostly Cloudy,160,2013-03-10 21:56:00
5:56 PM,73.0,54.0,51,29.91,10.0,SSE,13.8,27.6,N/A,,Mostly Cloudy,160,2013-03-10 22:56:00
6:56 PM,71.1,55.0,57,29.90,10.0,SSE,12.7,20.7,N/A,,Overcast,160,2013-03-10 23:56:00
7:56 PM,71.1,57.0,61,29.91,10.0,SSE,11.5,26.5,N/A,,Overcast,160,2013-03-11 00:56:00
8:56 PM,69.1,57.9,68,29.93,10.0,SSE,12.7,24.2,N/A,,Overcast,160,2013-03-11 01:56:00
9:05 PM,69.8,57.2,64,29.90,10.0,SSE,16.1,26.5,N/A,,Overcast,150,2013-03-11 02:05:00
9:56 PM,68.0,57.9,70,29.93,10.0,SSE,15.0,23.0,N/A,,Overcast,160,2013-03-11 02:56:00
10:56 PM,66.0,57.0,73,29.92,10.0,SSE,13.8,24.2,N/A,,Overcast,160,2013-03-11 03:56:00
11:56 PM,64.9,57.0,75,29.91,10.0,SSE,15.0,26.5,N/A,,Overcast,150,2013-03-11 04:56:00
12:22 AM,64.4,57.2,77,29.89,10.0,SSE,13.8,25.3,N/A,,Overcast,160,2013-03-11 05:22:00
12:56 AM,64.9,57.0,75,29.91,10.0,SSE,12.7,19.6,N/A,,Overcast,160,2013-03-11 05:56:00